Location: Barcelona
(41.3830°N, 2.1830°E)
Time: 07:15:19
(UTC+01:00)

ISS - Pass Details

Date: 30 November 2020
Orbit: 418 x 420 km, 51.6° (Epoch: 04 December)

Event Time Altitude Azimuth Distance (km) Brightness Sun altitude
Rises 18:11:52 0° 296° (WNW) 2,363 0.8 -9.2°
Reaches altitude 10° 18:14:43 10° 322° (NW) 1,499 -0.7 -9.7°
Maximum altitude 18:16:38 14° 357° (N) 1,262 -1.5 -10.0°
Enters shadow 18:18:32 10° 32° (NNE) 1,492 -1.4 -10.4°
